Starlink 33653

operational
NORAD ID: 63380 Int'l Des: 2025-063 Owner: SPXS Country: US Constellation: starlink
LEOCIRCULAR

关于 Starlink 33653

正在加载描述...

实时位置

正在加载3D地球...

即将过境

高度历史

Altitude vs Time

uPlot chart will show altitude changes over time

两行轨道根数

1 63380U 25063T 25349.98297463 .00018120 00000-0 62221-3 0 9995
2 63380 53.1605 81.2694 0000974 58.2427 301.8668 15.30210947 41896
Epoch: Dec 15, 2025 • Age: 24 hours

当前状态

高度 486.9 km
速度 7.62 km/s
星下点 -35.14°S, 159.01°W
发射日期 Mar 26, 2025
运行时间 0.7 years
类型 internet

技术详情

分类 Payload
质量 575.00 kg
干质量 530.00 kg
总质量 575.00 kg
长度 0.30 m
直径 4.10 m
跨度 29.00 m
形状 Box + pan
制造商 SPXS
平台类型 Starlink V2MO
阶段状态 In Orbit
所有者/国家 SPXS/US

大型星座

Loading constellations...